Regional Weather Roundup
Issued by NWS

Home | Current Version | Previous Version | Text Only | Print | Product List | Glossary Off
Versions: 1 2 3 4 5 6 7 8 9 10 11 12 13 14 15 16 17 18 19 20 21 22 23 24 25 26 27 28 29 30 31 32 33 34 35 36 37 38 39 40 41 42 43 44 45 46 47 48 49 50

000
ASUS45 KABQ 251301
RWRNM
WEATHER ROUNDUP FOR NEW MEXICO
NATIONAL WEATHER SERVICE ALBUQUERQUE NM
600 AM MST SUN JAN 25 2015

NOTE: "FAIR" MEANS FEW OR NO CLOUDS BELOW 12,000 FEET AGL WITH NO
       SIGNIFICANT WEATHER OR OBSTRUCTIONS TO VISION.

      THIS PRODUCT IS RELEASED AS TWO VERSIONS.  ONE VERSION NEAR
      THE TOP OF THE HOUR CONTAINING PRELIMINARY DATA FROM ALBUQUERQUE
      AND OTHER STATIONS.  A FINAL VERSION WITH ADDITIONAL DATA IS
      ISSUED ABOUT 10 MINUTES AFTER THE HOUR.

NMZ501-503-504-510>518-251400-
NORTHWEST PLATEAU/NORTHCENTRAL MOUNTAINS

CITY           SKY/WX    TMP DP  RH WIND       PRES   REMARKS
FARMINGTON     CLEAR     20  16  84 E7        30.29R WCI  11
SANTA FE       PTCLDY    23  16  74 N8        30.24R WCI  14
TAOS           PTCLDY    16   9  73 CALM      30.28S

$$
NMZ402-403-502-505>509-251400-
WESTCENTRAL MOUNTAINS/SOUTHWEST MOUNTAINS

CITY           SKY/WX    TMP DP  RH WIND       PRES   REMARKS
GALLUP         CLEAR     20  16  84 NE7       30.29S WCI  11
GRANTS         CLEAR     19  16  88 SW6       30.30S WCI  11
SILVER CITY    PTCLDY    27  18  69 N9        30.21S WCI  17

$$
NMZ407-409-411-412-251400-
SOUTHERN DESERTS

CITY           SKY/WX    TMP DP  RH WIND       PRES   REMARKS
DEMING         PTCLDY    29  22  75 SE7       30.20S WCI  22
HOLLOMAN AFB   MOCLDY    26  23  89 E6        30.21R WCI  19
ALAMOGORDO     CLOUDY    27  23  86 CALM      30.22R
T OR C         MOCLDY    31  21  66 N5        30.22R WCI  26

$$
NMZ519>523-251400-
CENTRAL VALLEYS/CENTRAL HIGHLANDS

CITY           SKY/WX    TMP DP  RH WIND       PRES   REMARKS
ALBUQUERQUE    PTCLDY    28  19  69 N6        30.27R WCI  22
DOUBLE EAGLE   CLEAR     43  16  33 W5        30.26S
MORIARTY ARPT  FAIR      19  16  86 E3        30.25R
CLINES CORNERS CLEAR     23  13  65 NW10      30.20R WCI  12
BELEN          FAIR      25  20  81 NW5       30.26S WCI  19
SOCORRO        NOT AVBL

$$
NMZ524>526-539-540-251400-
SOUTHCENTRAL MOUNTAINS

CITY           SKY/WX    TMP DP  RH WIND       PRES   REMARKS
RUIDOSO        NOT AVBL

$$
NMZ527>531-251400-
NORTHEAST HIGHLANDS/NORTHEAST PLAINS

CITY           SKY/WX    TMP DP  RH WIND       PRES   REMARKS
LAS VEGAS      PTCLDY    33  14  45 W5        30.21R WCI  29
RATON          CLEAR     26  20  77 NE12      30.19R WCI  16
CLAYTON        CLEAR     37  26  64 NW14      30.18R WCI  28

$$
NMZ532>537-251400-
EASTCENTRAL PLAINS

CITY           SKY/WX    TMP DP  RH WIND       PRES   REMARKS
TUCUMCARI      PTCLDY    27  23  85 W6        30.20R WCI  20
CANNON AFB     MOCLDY    33  26  75 N12       30.17R WCI  24
CLOVIS AIRPORT PTCLDY    34  27  75 N14       30.17S WCI  24

$$
NMZ028-029-538-251400-
SOUTHEAST PLAINS

CITY           SKY/WX    TMP DP  RH WIND       PRES   REMARKS
ROSWELL        PTCLDY    30  25  81 N7        30.20R WCI  23
ARTESIA        CLOUDY    30  28  93 N8        30.21R WCI  23
CARLSBAD       PTCLDY    35  26  69 NW9       30.19R WCI  28
HOBBS          CLEAR     34  28  80 N12       30.19R WCI  25


$$


USA.gov is the U.S. government's official web portal to all federal, state and local government web resources and services.